STARLINK-4631

operational
NORAD ID: 53786 Int'l Des: 2022-111 Owner: SPXS Country: US Constellation: starlink
LEOCIRCULAR

STARLINK-4631について

説明を読み込み中...

リアルタイム位置

3D地球を読み込み中...

次回通過

高度履歴

Altitude vs Time

uPlot chart will show altitude changes over time

軌道要素

1 53786U 22111P 25235.46329476 .15270426 12732-4 10858-3 0 9995
2 53786 53.2019 31.1000 0006933 284.3758 75.6527 16.52703317164518
Epoch: Aug 23, 2025 • Age: 407 hours

現在のステータス

Position data unavailable
打ち上げ日 Sep 11, 2022
運用期間 2.9 years
落下予定日 Aug 23, 2025
タイプ internet

技術仕様

分類 Payload
質量 305.00 kg
乾燥質量 290.00 kg
総質量 305.00 kg
長さ 0.20 m
直径 2.80 m
スパン 9.00 m
形状 Box + pan
製造者 SPXS
バスタイプ Starlink
フェーズステータス Reentered
所有者/国 SPXS/US

大規模コンステレーション

Loading constellations...